sat.trackr.live / text

‹ back to catalog

STARLINK-32165

NORAD 60599 · 2024-150S

PAYLOAD ACTIVE UNKNOWN

§ Identity

Operator
Country
US
Launch date
2024-08-20
Launch site
AFETR
Launch vehicle
Mass (kg)
RCS (m²)

Purposes: comms

External: N2YO · Heavens-Above · Gunter

§ Orbital elements

Epoch: 2026-09-21T20:27:16.506432Z

Period
93.85 min
Inclination
53.1607°
Eccentricity
0.0001331
Mean motion
15.34385907 rev/d
Perigee alt
461.8 km
Apogee alt
463.7 km
Semi-major
6,840.9 km
B*
1.8027e-5
RAAN
115.2431°
Arg perigee
95.7114°
Mean anomaly
264.4041°
Rev number
11,808

§ Raw data

STARLINK-321651 60599U 24150S   26264.85227438  .00000233  00000+0  18027-4 0  99992 60599  53.1607 115.2431 0001331  95.7114 264.4041 15.34385907118089

JSON: /api/v1/satellites/60599 · /tle

For live sub-satellite position, see the globe view (requires WebGL).

§ Visibility from observer

Set your observer location to see the next 7 days of passes ≥ 10°. The values pass through the URL so the page stays shareable.

No JS? Fill the form by hand. The geolocation button needs JavaScript.